[[{"header":{"parameterUnit":"m.s-1","parameterCategory":1,"la1":30.2991,"la2":30.254,"lo1":-89.0895,"lo2":-89.0444,"dy":0.0017,"dx":0.0017,"nx":28,"ny":28,"refTime":"2024-02-23T03:00:00:Z","depth":0,"parameterNumber":2,"parameterNumberName":"U-component_of_WINDS"},"data":[0,0,0,0,0,0,0,0,0,0,0,0,0,0,0,0,0,0,0,0,0,0,0,0,0,0,0,0,0,0,0,0,0,0,0,0,0,0,0,0,0,0,0,0,0,0,0,0,0,0,0,0,0,0,0,0,0,0,0.0796,0.0796,0,0.0746,0.0746,0.0745,0.0737,0.0737,0.0737,0.0738,0.0691,0.0689,0.0688,0,0,0,0,0,0,0,0,0,0,0,0,0,0.0888,0.0886,0.0796,0.0795,0.0795,0.0746,0.0746,0.0745,0.0736,0.0737,0.0737,0.0738,0.0692,0.069,0.0688,0,0,0,0,0,0,0,0,0,0,0,0,0,0.0844,0.0886,0.0796,0.0785,0.0783,0.0747,0.0746,0.0745,0.0736,0.0737,0.0738,0.0738,0.0692,0.069,0.0687,0.066,0,0,0.068,0.0679,0,0,0,0,0,0,0,0,0.0847,0.0841,0.0787,0.0785,0.0784,0.0748,0.0761,0.0717,0.0736,0.0754,0.0738,0.0738,0.071,0.0706,0.0695,0.0658,0.0656,0.068,0.0678,0.0677,0.0677,0,0,0,0,0,0,0,0.085,0.0843,0.0777,0.0786,0.0784,0.0783,0.0778,0.0753,0.0729,0.0753,0.0752,0.0746,0.0709,0.0698,0.0694,0.0655,0.068,0.0678,0.0676,0.0675,0.0594,0.0593,0,0,0,0,0,0,0.0854,0.0846,0.0778,0.0775,0.0817,0.0781,0.0775,0.0759,0.073,0.0726,0.0746,0.0746,0.0702,0.0697,0.0693,0.066,0.0677,0.0675,0.0674,0.0595,0.0594,0.0593,0,0,0,0,0,0,0.0856,0.0848,0.078,0.081,0.0801,0.0779,0.0761,0.0758,0.0746,0.0724,0.072,0.0738,0.0702,0.0696,0.0668,0.0658,0.0674,0.0672,0.0596,0.0595,0.0594,0.0593,0,0,0,0,0,0,0.0859,0.0849,0.0838,0.081,0.08,0.0755,0.076,0.0756,0.0742,0.0742,0.0716,0.0712,0.0702,0.0672,0.0666,0.0655,0.067,0.0596,0.0595,0.0594,0.0594,0.0592,0.059,0,0,0,0,0,0.0862,0.084,0.0837,0.0829,0.0785,0.0755,0.0749,0.0736,0.0741,0.073,0.0716,0.0713,0.066,0.0669,0.0662,0.065,0.0597,0.0596,0.0594,0.0595,0.0592,0.059,0,0,0,0,0,0,0.0869,0.0836,0.0833,0.08,0.078,0.0753,0.0739,0.0734,0.0714,0.0715,0.0701,0.0695,0.0668,0.0656,0.0667,0.0623,0.0629,0.0626,0.0632,0.0629,0.0628,0.0632,0.0668,0,0,0,0,0,0.0866,0.0843,0.0817,0.0791,0.0781,0.0762,0.0748,0.074,0.0719,0.0711,0.0695,0.0676,0.0655,0.0641,0.0621,0.0592,0.0587,0.058,0.0578,0.0577,0.0575,0.056,0.0557,0.0588,0.0588,0.0588,0,0,0.0861,0.0841,0.0827,0.0792,0.0775,0.0753,0.0755,0.0731,0.0715,0.0708,0.0681,0.0668,0.0646,0.0618,0.0604,0.0607,0.0565,0.0575,0.0574,0.0573,0.0558,0.0555,0.0553,0.0587,0.0587,0.0587,0,0,0.0841,0.0822,0.0799,0.0782,0.0757,0.0744,0.0739,0.0712,0.0703,0.0675,0.0669,0.0651,0.0614,0.0599,0.0587,0.0561,0.0558,0.0554,0.0546,0.0532,0.0529,0.0527,0.0519,0.0516,0.0552,0.0552,0.0552,0,0.0839,0.0804,0.0788,0.0765,0.075,0.0741,0.0718,0.0703,0.0673,0.0664,0.0666,0.0621,0.0605,0.0574,0.0567,0.0557,0.0552,0.0558,0.053,0.0528,0.0526,0.0518,0.0515,0.0552,0.0552,0.0552,0.0552,0,0.0803,0.0779,0.0763,0.0733,0.0716,0.0693,0.0676,0.0661,0.0654,0.0642,0.0614,0.0595,0.0571,0.0562,0.0556,0.053,0.0532,0.0533,0.0539,0.0523,0.0515,0.0512,0.0552,0.0552,0.0552,0.0552,0,0,0.0786,0.0747,0.0741,0.0728,0.0699,0.0681,0.0658,0.0633,0.0621,0.06,0.0582,0.0551,0.0551,0.0537,0.0529,0.0516,0.0498,0.0518,0.0518,0.0516,0.047,0.047,0.0467,0.0496,0.0495,0.0494,0.0472,0,0.0763,0.0721,0.0707,0.0672,0.0651,0.0642,0.0622,0.0603,0.0591,0.0572,0.0559,0.0537,0.0539,0.053,0.0517,0.0503,0.0489,0.0504,0.048,0.0479,0.0487,0.0463,0.0463,0.0443,0.0469,0.0468,0.0468,0,0.0731,0.0709,0.0672,0.0646,0.0637,0.0619,0.0595,0.0576,0.0555,0.0547,0.0531,0.0524,0.0501,0.0507,0.0477,0.0488,0.0477,0.0469,0.0467,0.0466,0.0474,0.0462,0.0436,0.0434,0.0463,0.0463,0.0464,0,0.0725,0.0685,0.0658,0.0647,0.0615,0.0603,0.059,0.0569,0.0555,0.0534,0.0525,0.0503,0.0491,0.0474,0.0461,0.0467,0.0432,0.0437,0.0426,0.0427,0.0421,0.0421,0.0394,0.0412,0.0412,0.0412,0.0412,0,0.0702,0.068,0.0655,0.0638,0.0614,0.0598,0.0575,0.0561,0.0542,0.0524,0.0515,0.0499,0.0482,0.0464,0.0454,0.043,0.0425,0.0419,0.0417,0.042,0.0421,0.0414,0.0416,0.0411,0.0411,0.0411,0.0411,0,0.069,0.0672,0.0643,0.0615,0.0607,0.0591,0.0568,0.0552,0.0539,0.0516,0.051,0.049,0.0468,0.0453,0.0425,0.0418,0.0394,0.0391,0.0401,0.04,0.039,0.0392,0.0358,0.0354,0.0373,0.0373,0.0373,0,0.0677,0.066,0.063,0.0617,0.0603,0.0581,0.0567,0.0551,0.0536,0.051,0.0498,0.0475,0.0456,0.0421,0.0405,0.0384,0.0381,0.0371,0.0378,0.0383,0.0383,0.0384,0.0383,0.0371,0.037,0.037,0.037,0,0.0657,0.0649,0.0627,0.0602,0.0585,0.0565,0.0545,0.0535,0.0515,0.05,0.0476,0.0461,0.0432,0.041,0.0387,0.0375,0.037,0.0368,0.0364,0.0369,0.0375,0.0372,0.0399,0.0369,0.0369,0.0369,0.0369,0.0369,0.0645,0.063,0.0606,0.0583,0.0566,0.0547,0.0531,0.0516,0.0495,0.047,0.0462,0.0438,0.0417,0.0386,0.0373,0.0355,0.0356,0.0351,0.035,0.0349,0.0349,0.0377,0.0351,0.0351,0.0351,0.0351,0.0351,0,0.0625,0.0609,0.0587,0.0559,0.0541,0.0536,0.0514,0.05,0.0478,0.0459,0.044,0.0413,0.0392,0.0373,0.0351,0.034,0.0337,0.0335,0.0336,0.0334,0.0349,0.0355,0.0338,0.0338,0.0338,0.0338,0.0338,0.0338,0.0612,0.0586,0.0575,0.0541,0.0526,0.0501,0.0489,0.0473,0.0457,0.0428,0.0409,0.0397,0.0378,0.0354,0.0335,0.033,0.0323,0.0321,0.0316,0.0331,0.0333,0.0334,0.034,0.0319,0.0319,0.0303,0.0302,0.0302]},{"header":{"parameterUnit":"m.s-1","parameterCategory":1,"la1":30.2991,"la2":30.254,"lo1":-89.0895,"lo2":-89.0444,"dy":0.0017,"dx":0.0017,"nx":28,"ny":28,"refTime":"2024-02-23T03:00:00:Z","depth":0,"parameterNumber":3,"parameterNumberName":"V-component_of_WINDS"},"data":[0,0,0,0,0,0,0,0,0,0,0,0,0,0,0,0,0,0,0,0,0,0,0,0,0,0,0,0,0,0,0,0,0,0,0,0,0,0,0,0,0,0,0,0,0,0,0,0,0,0,0,0,0,0,0,0,0,0,5.0364,5.0363,0,5.0282,5.0281,5.028,5.0264,5.0264,5.0265,5.0266,5.0176,5.0173,5.017,0,0,0,0,0,0,0,0,0,0,0,0,0,5.0503,5.05,5.0364,5.0363,5.0362,5.0282,5.0281,5.0279,5.0263,5.0264,5.0265,5.0266,5.0177,5.0173,5.017,0,0,0,0,0,0,0,0,0,0,0,0,0,5.0434,5.0499,5.0364,5.0344,5.0342,5.0282,5.0281,5.0279,5.0263,5.0264,5.0265,5.0266,5.0178,5.0173,5.0169,5.0121,0,0,5.0155,5.0153,0,0,0,0,0,0,0,0,5.0437,5.0428,5.0348,5.0345,5.0342,5.0284,5.0297,5.0226,5.0263,5.0293,5.0266,5.0267,5.0211,5.0203,5.0186,5.0117,5.0113,5.0155,5.0152,5.015,5.0149,0,0,0,0,0,0,0,5.0442,5.0432,5.0331,5.0347,5.0343,5.0338,5.0329,5.0283,5.0247,5.029,5.0289,5.028,5.0209,5.019,5.0183,5.0112,5.0155,5.0151,5.0148,5.0146,5.0003,5.0002,0,0,0,0,0,0,5.0451,5.0436,5.0334,5.0329,5.0394,5.0335,5.0325,5.0302,5.0247,5.024,5.0279,5.0279,5.0197,5.0189,5.018,5.0123,5.015,5.0146,5.0143,5.0004,5.0002,5.0001,0,0,0,0,0,0,5.0454,5.0442,5.0337,5.0382,5.0368,5.0332,5.0305,5.0299,5.028,5.0239,5.0232,5.0267,5.0198,5.0187,5.0137,5.0119,5.0144,5.014,5.0005,5.0003,5.0002,5.0006,0,0,0,0,0,0,5.0458,5.0443,5.0426,5.0382,5.0366,5.0296,5.0304,5.0297,5.0273,5.0273,5.0225,5.0218,5.0198,5.0144,5.0133,5.0113,5.0136,5.0007,5.0004,5.0002,5.0007,5.0005,5.0003,0,0,0,0,0,5.0463,5.0428,5.0425,5.0413,5.0343,5.0295,5.0286,5.0265,5.0272,5.0254,5.0227,5.022,5.0123,5.0139,5.0126,5.0105,5.0008,5.0005,5.0003,5.0009,5.0005,5.0003,0,0,0,0,0,0,5.0468,5.0422,5.0418,5.0368,5.0336,5.0293,5.0269,5.0262,5.0225,5.0226,5.0199,5.0189,5.0141,5.0118,5.0137,5.0058,5.0066,5.006,5.0075,5.0071,5.0069,5.0076,5.0133,0,0,0,0,0,5.0464,5.0431,5.0391,5.0351,5.0336,5.0305,5.0283,5.027,5.0235,5.0221,5.0191,5.0156,5.0118,5.0093,5.0055,5.0004,4.9994,4.9984,4.9981,4.9979,4.9975,4.9948,4.9944,4.9993,4.9993,4.9993,0,0,5.0454,5.0425,5.0405,5.0351,5.0325,5.0291,5.0294,5.0256,5.023,5.0214,5.0167,5.0144,5.0103,5.0054,5.003,5.0033,4.996,4.9976,4.9975,4.9972,4.9945,4.9941,4.9936,4.9991,4.9992,4.9992,0,0,5.0418,5.0393,5.0357,5.0332,5.0293,5.0274,5.0265,5.0224,5.0209,5.0161,5.015,5.0118,5.0052,5.0024,5.0002,4.9959,4.9951,4.9947,4.9934,4.9908,4.9904,4.9901,4.9887,4.9882,4.9943,4.9943,4.9943,0,5.041,5.0359,5.0339,5.0304,5.0281,5.0268,5.0232,5.0208,5.0158,5.0142,5.0147,5.0066,5.0038,4.9982,4.9972,4.9954,4.9943,4.9952,4.9907,4.9903,4.9899,4.9886,4.988,4.9943,4.9943,4.9943,4.9943,0,5.0352,5.0316,5.0292,5.0248,5.0222,5.0186,5.0161,5.0137,5.0127,5.0106,5.0059,5.0025,4.9981,4.9967,4.9954,4.991,4.9913,4.9913,4.992,4.9895,4.9882,4.9876,4.9943,4.9943,4.9943,4.9943,0,0,5.0315,5.0263,5.0255,5.0236,5.0193,5.0165,5.0129,5.0089,5.0069,5.0036,5.0005,4.9951,4.9952,4.9926,4.9911,4.9888,4.9858,4.989,4.9889,4.9886,4.9808,4.981,4.9804,4.9853,4.9852,4.9851,4.9812,0,5.0276,5.0213,5.0195,5.0142,5.011,5.0099,5.0067,5.0037,5.0018,4.9987,4.9964,4.9928,4.993,4.9915,4.9892,4.9867,4.9842,4.9869,4.9823,4.9822,4.9835,4.9797,4.9798,4.9763,4.9807,4.9806,4.9805,0,5.022,5.0189,5.0134,5.0098,5.0084,5.0056,5.0019,4.999,4.9956,4.9944,4.9917,4.9904,4.9866,4.9876,4.9823,4.9842,4.9822,4.9807,4.9805,4.98,4.9812,4.9792,4.9751,4.9746,4.9796,4.9797,4.9798,0,5.0201,5.0145,5.0105,5.0089,5.0046,5.0027,5.0008,4.9976,4.9953,4.9921,4.9906,4.9868,4.9848,4.9818,4.9796,4.9805,4.9745,4.9753,4.9734,4.9734,4.9721,4.9722,4.9678,4.9708,4.9708,4.9708,4.9708,0,5.0159,5.0126,5.0097,5.0072,5.0035,5.0015,4.9978,4.9958,4.993,4.99,4.9887,4.986,4.9832,4.9801,4.9783,4.9742,4.9733,4.9721,4.9717,4.9723,4.9725,4.971,4.9712,4.9706,4.9707,4.9707,4.9707,0,5.0131,5.0111,5.0067,5.0031,5.0021,4.9995,4.9964,4.9939,4.9921,4.9884,4.9874,4.9844,4.9807,4.9782,4.9734,4.9722,4.9678,4.9674,4.969,4.9689,4.9671,4.9674,4.9616,4.9608,4.9642,4.9642,4.9642,0,5.0106,5.0081,5.0044,5.0025,5.0006,4.9975,4.9953,4.9933,4.9911,4.9872,4.9852,4.9815,4.9784,4.9725,4.9698,4.9662,4.9657,4.9639,4.9651,4.9659,4.9658,4.966,4.9658,4.9637,4.9637,4.9637,4.9637,0,5.0064,5.0056,5.0026,4.9994,4.9969,4.9942,4.9914,4.9899,4.9874,4.9849,4.9813,4.9789,4.9742,4.9705,4.9667,4.9645,4.9637,4.9633,4.9627,4.9633,4.9644,4.9639,4.9686,4.9635,4.9635,4.9635,4.9635,4.9635,5.0037,5.0015,4.9987,4.9955,4.9933,4.9908,4.9884,4.9864,4.9834,4.9795,4.9784,4.9747,4.9715,4.9663,4.9642,4.9611,4.9613,4.9603,4.9601,4.9599,4.96,4.9649,4.9604,4.9604,4.9604,4.9604,4.9604,0,4.9996,4.9978,4.9949,4.9912,4.9888,4.9884,4.9854,4.9833,4.9801,4.9773,4.9744,4.9703,4.9668,4.9639,4.9603,4.9584,4.958,4.9575,4.9577,4.9572,4.96,4.961,4.958,4.958,4.958,4.958,4.958,4.958,4.9972,4.9935,4.9924,4.9876,4.9857,4.9822,4.9805,4.9783,4.9761,4.9716,4.9688,4.9671,4.9643,4.9605,4.9573,4.9565,4.9552,4.955,4.9541,4.9567,4.957,4.9573,4.9582,4.9547,4.9547,4.9516,4.9516,4.9516]}]]